Weather History for Athens, GA

Change the Weather History Date:

Tuesday, December 13, 2011

  Actual Average Record
Temperature  
Mean Temperature 52 °F 46 °F  
Max Temperature 66 °F 56 °F 76 °F (1956)
Min Temperature 38 °F 35 °F 2 °F (1962)
Degree Days  
Heating Degree Days 13 19  
Month to date heating degree days 211 233  
Since 1 July heating degree days 706 713  
Growing Degree Days 2 (Base 50)    
Moisture  
Dew Point 39 °F    
Average Humidity 65    
Maximum Humidity 86    
Minimum Humidity 44    
Precipitation  
Precipitation 0.00 in 0.12 in 1.78 in (1935)
Month to date precipitation 0.47 1.62  
Year to date precipitation 33.90 44.22  
Snow  
Snow 0.00 in 0.00 in 0.00 in (2001)
Month to date snowfall 0.0 0.0  
Since 1 July snowfall 0.0 0.0  
Snow Depth -    
Sea Level Pressure  
Sea Level Pressure 30.43 in    
Wind  
Wind Speed 2 mph (North)    
Max Wind Speed 7 mph    
Max Gust Speed 10 mph    
Visibility 10 miles    
Events      
T = Trace of Precipitation, MM = Missing Value Source: NWS Daily Summary

Daily Weather History Graph

Daily Weather History Graph

Search for Another Location

Airport:

Trip Planner

Search our weather history database for the weather conditions in past years. The results will help you decide how hot, cold, wet, or windy it might be!

Date:

Astronomy

Dec. 13, 2011 Rise Set
Actual Time 7:29 AM EST 5:25 PM EST
Civil Twilight 7:02 AM EST 5:52 PM EST
Nautical Twilight 6:30 AM EST 6:24 PM EST
Astronomical Twilight 6:00 AM EST 6:54 PM EST
Moon 8:33 PM EST (12/13) 9:43 AM EST (12/13)
Length of Visible Light 10h 50m
Length of Day
9h 55m
Waning Gibbous, 90% of the Moon is Illuminated
Dec 13
Waning Gibbous
Dec 17
Last Quarter
Dec 24
New
Jan 1
First Quarter
Jan 9
Full

Hourly Weather History & Observations

Time (EST) Temp. Windchill Dew Point Humidity Pressure Visibility Wind Dir Wind Speed Gust Speed Precip Events Conditions
12:51 AM 46.0 °F 43.9 °F 32.0 °F 58% 30.47 in 10.0 mi NE 4.6 mph - N/A   Overcast
1:51 AM 46.0 °F 43.9 °F 32.0 °F 58% 30.46 in 10.0 mi NE 4.6 mph - N/A   Overcast
1:58 AM 46.4 °F 44.3 °F 32.0 °F 57% 30.44 in 10.0 mi NE 4.6 mph - N/A   Overcast
2:51 AM 46.0 °F 43.1 °F 32.0 °F 58% 30.46 in 10.0 mi NE 5.8 mph - N/A   Overcast
3:51 AM 45.0 °F 42.6 °F 32.0 °F 60% 30.45 in 10.0 mi East 4.6 mph - N/A   Overcast
4:51 AM 42.1 °F - 32.0 °F 67% 30.46 in 10.0 mi Calm Calm - N/A   Clear
5:51 AM 39.0 °F - 32.0 °F 76% 30.46 in 10.0 mi Calm Calm - N/A   Clear
6:51 AM 39.9 °F - 32.0 °F 73% 30.48 in 10.0 mi Calm Calm - N/A   Clear
7:51 AM 37.9 °F - 33.1 °F 83% 30.49 in 7.0 mi Calm Calm - N/A   Clear
8:51 AM 46.0 °F - 36.0 °F 68% 30.48 in 8.0 mi Calm Calm - N/A   Clear
9:51 AM 52.0 °F - 35.1 °F 53% 30.49 in 9.0 mi Calm Calm - N/A   Clear
10:51 AM 55.0 °F - 37.0 °F 51% 30.50 in 10.0 mi Calm Calm - N/A   Clear
11:51 AM 59.0 °F - 41.0 °F 51% 30.47 in 10.0 mi Calm Calm - N/A   Clear
12:51 PM 63.0 °F - 42.1 °F 46% 30.43 in 10.0 mi Calm Calm - N/A   Clear
1:51 PM 64.9 °F - 42.1 °F 43% 30.41 in 10.0 mi Calm Calm - N/A   Clear
2:51 PM 66.0 °F - 44.1 °F 45% 30.40 in 10.0 mi NNW 4.6 mph - N/A   Clear
3:51 PM 64.9 °F - 44.1 °F 47% 30.38 in 10.0 mi WSW 3.5 mph - N/A   Clear
4:51 PM 63.0 °F - 45.0 °F 52% 30.39 in 10.0 mi West 5.8 mph - N/A   Clear
5:51 PM 59.0 °F - 45.0 °F 60% 30.38 in 10.0 mi Calm Calm - N/A   Clear
6:51 PM 53.1 °F - 45.0 °F 74% 30.39 in 10.0 mi Calm Calm - N/A   Clear
7:51 PM 54.0 °F - 45.0 °F 72% 30.39 in 10.0 mi Calm Calm - N/A   Clear
8:51 PM 53.1 °F - 45.0 °F 74% 30.39 in 10.0 mi Calm Calm - N/A   Clear
9:51 PM 50.0 °F - 44.1 °F 80% 30.40 in 10.0 mi WNW 3.5 mph - N/A   Clear
10:51 PM 46.9 °F - 43.0 °F 86% 30.40 in 10.0 mi Calm Calm - N/A   Clear
11:51 PM 46.9 °F - 43.0 °F 86% 30.40 in 10.0 mi Calm Calm - N/A   Clear